Torna al catalogo

STARLINK-32775

AttivoComunicazioniVLEO
NORAD 62742·PAYLOAD·🇺🇸 United States

Lanciato Jan 21, 2025 da Cape Canaveral Space Force Station

Loading…

Prossimi Passaggi (prossime 24 ore)

TLE

AggiornatoSource: CelesTrak SupGP

Epoca: Sep 15, 2026, 03:09 UTC

1 62742C 25014H   26258.13173611  .00017810  00000+0  64519-3 0  2581
2 62742  43.0007 164.4673 0001564 278.6868 336.5816 15.27564177    17

Traccia STARLINK-32775 in tempo reale con AllMySat

Download on the App Store